星链-2334 (STARLINK-2334 )

导读

STARLINK-2334是美国SpaceX星链计划中的卫星,于2021年3月11日发射升空,属于星链低轨互联网卫星星座的组成部分。它运行在近地轨道,承担为全球提供高速互联网接入服务的任务,支撑星链网络覆盖扩展,推动低轨卫星通信星座组网建设,是美国星链全球通信布局的重要节点。

Basic Information
目录编号:
47792
目录名称:
STARLINK-2334
国际标识:
2021-018F
轨道中心:
EARTH
卫星名称:
星链-2334
卫星全名:
星链-2334 (STARLINK-2334 )
卫星状态:
在轨 (已飞行2003 天)
发射日期:
2021-03-11 UTC
国别 :
美国 (US)
星等 :
--
Orbit Information
数据来源 国际轨道数据 AOE轨道数据
星历时间 2026-09-04T00:53:54+0800
13小时前
查看轨道信息
2026-09-03T22:00:00+0800
16小时前
查看轨道信息
半长轴 6848.858km 6848.892km
偏心率 0.000091 0.0001054
轨道倾角 53.158° 53.158°
近地点辐角 99.269° 82.497°
升交点赤经 130.727° 131.292°
平近点角 260.842° 331.286°
近地点 470.097km 470.033km
远地点 471.345km 471.477km
周期 94.013分钟 94.013分钟
每日圈数 15.317065 15.316952
Detailed Information
固有亮度:
5
最大亮度:
2.5
卫星平台:
Starlink V1.0
覆盖范围:
全球
运营商:
太空探索技术公司
运营商所在国:
美国
制造商(研发单位):
太空探索技术公司
制造商所在国:
美国
使用方式:
暂无
Satellite Introduction
星链(Starlink)计划是由太空探索技术公司(SpaceX)提出的一个巨型低轨卫星互联网星座项目,计划在2019年至2024年间在太空搭建由约1.2万颗卫星组成的“星链”网络,其中1584颗将部署在地球上空550千米处的近地轨道,并从2020年开始工作。该卫星仍在工作。
2D Orbit Map
3D Orbit Map
Orbit Altitude Analysis Chart
Orbit Inclination Analysis Chart
Orbit Comprehensive Analysis Chart
View Comprehensive Chart
Conjunction Data List
Event ID Objects TCA Miss Dist (km) Collision Risk Probability Collision Risk Index (CRI) Action
CDM_260903-063104-779206-524222
2026-09-03T
06:31:01+0000
2.718 km
极远距离
1.50664E-6 低风险 0.39
CDM_260904-013104-779206-760921
2026-09-04T
01:31:29+0000
2.988 km
极远距离
1.343818E-6 低风险 0.38
CDM_260904-160204-779205-635022
2026-09-04T
16:02:48+0000
2.855 km
极远距离
1.322948E-6 低风险 0.37